Change the Weather History Date:

Sunday, January 29, 2012

  Actual Average Record
Temperature  
Mean Temperature 48 °F 26 °F  
Max Temperature 53 °F 36 °F 61 °F (1931)
Min Temperature 42 °F 16 °F -41 °F (1916)
Degree Days  
Heating Degree Days 17 39  
Month to date heating degree days 1065 1155  
Since 1 July heating degree days 3705 4372  
Cooling Degree Days 0 0  
Month to date cooling degree days 0 0  
Year to date cooling degree days 0 0  
Moisture  
Dew Point 27 °F    
Average Humidity 45    
Maximum Humidity 58    
Minimum Humidity 32    
Precipitation  
Precipitation 0.00 in 0.02 in 0.42 in (2014)
Month to date precipitation 0.30 0.48  
Year to date precipitation 0.30 0.48  
Snow  
Snow 0.00 in 0.30 in 5.50 in (2013)
Month to date snowfall 5.6 8.1  
Since 1 July snowfall 15.6 31.3  
Snow Depth 0.00 in    
Sea Level Pressure  
Sea Level Pressure 29.79 in    
Wind  
Wind Speed 28 mph (SW)    
Max Wind Speed 47 mph    
Max Gust Speed 60 mph    
Visibility 10 miles    
Events      
T = Trace of Precipitation, MM = Missing Value Source: NWS Daily Summary

Daily Weather History Graph

Daily Weather History Graph

Search for Another Location

Airport or City:

Trip Planner

Search our weather history database for the weather conditions in past years. The results will help you decide how hot, cold, wet, or windy it might be!

Date:

Astronomy

Jan. 29, 2012 Rise Set
Actual Time 7:55 AM MST 5:21 PM MST
Civil Twilight 7:22 AM MST 5:55 PM MST
Nautical Twilight 6:45 AM MST 6:32 PM MST
Astronomical Twilight 6:09 AM MST 7:08 PM MST
Moon 10:16 AM MST (1/29) No Moon Set
Length of Visible Light 10h 32m
Length of Day
9h 25m
Waxing Crescent, 37% of the Moon is Illuminated
Jan 29
Waxing Crescent
Jan 30
First Quarter
Feb 7
Full
Feb 14
Last Quarter
Feb 21
New

Hourly Weather History & Observations

Time (MST) Temp. Windchill Dew Point Humidity Pressure Visibility Wind Dir Wind Speed Gust Speed Precip Events Conditions
12:53 AM 43.0 °F 32.9 °F 27.0 °F 53% 29.97 in 10.0 mi SW 27.6 mph 36.8 mph N/A   Mostly Cloudy
1:53 AM 44.1 °F 34.0 °F 28.0 °F 53% 29.95 in 10.0 mi SW 29.9 mph 38.0 mph N/A   Clear
2:53 AM 45.0 °F 34.4 °F 30.0 °F 56% 29.92 in 10.0 mi SW 35.7 mph 44.9 mph N/A   Clear
3:53 AM 46.0 °F 37.0 °F 30.9 °F 56% 29.91 in 10.0 mi SSW 27.6 mph 43.7 mph N/A   Clear
4:53 AM 48.0 °F - 30.9 °F 52% 29.87 in 10.0 mi SW 35.7 mph 47.2 mph N/A   Clear
5:53 AM 46.9 °F - 30.9 °F 54% 29.89 in 10.0 mi South 23.0 mph 32.2 mph N/A   Overcast
6:53 AM 48.0 °F - 32.0 °F 54% 29.83 in 10.0 mi SW 39.1 mph 51.8 mph N/A   Clear
7:53 AM 48.0 °F - 30.9 °F 52% 29.79 in 10.0 mi SW 42.6 mph 57.5 mph N/A   Clear
8:53 AM 48.0 °F - 30.9 °F 52% 29.86 in 10.0 mi SSW 31.1 mph 46.0 mph N/A   Clear
9:53 AM 48.9 °F - 28.9 °F 46% 29.83 in 10.0 mi SSW 31.1 mph 40.3 mph N/A   Clear
10:53 AM 50.0 °F - 28.0 °F 43% 29.79 in 10.0 mi SW 33.4 mph 42.6 mph N/A   Clear
11:53 AM 51.1 °F - 27.0 °F 39% 29.75 in 10.0 mi SW 32.2 mph 43.7 mph N/A   Clear
12:53 PM 53.1 °F - 25.0 °F 34% 29.74 in 10.0 mi SW 29.9 mph 41.4 mph N/A   Clear
1:53 PM 53.1 °F - 25.0 °F 34% 29.73 in 9.0 mi WSW 33.4 mph 43.7 mph N/A   Partly Cloudy
2:53 PM 52.0 °F - 25.0 °F 35% 29.72 in 10.0 mi SW 26.5 mph 38.0 mph N/A   Clear
3:53 PM 50.0 °F - 26.1 °F 39% 29.75 in 10.0 mi SW 27.6 mph 35.7 mph N/A   Clear
4:53 PM 48.9 °F - 27.0 °F 43% 29.72 in 10.0 mi SW 24.2 mph 31.1 mph N/A   Clear
5:53 PM 46.9 °F - 26.1 °F 44% 29.74 in 10.0 mi SW 23.0 mph 31.1 mph N/A   Clear
6:53 PM 48.2 °F - 24.8 °F 40% 29.71 in 10.0 mi SW 23.0 mph 32.2 mph N/A   Partly Cloudy
7:53 PM 48.9 °F - 25.0 °F 39% 29.71 in 10.0 mi SSW 25.3 mph 35.7 mph N/A   Overcast
8:53 PM 48.0 °F - 25.0 °F 41% 29.71 in 10.0 mi SW 20.7 mph 26.5 mph N/A   Scattered Clouds
9:53 PM 46.9 °F - 25.0 °F 42% 29.68 in 10.0 mi SSW 16.1 mph - N/A   Mostly Cloudy
10:53 PM 45.0 °F 37.6 °F 25.0 °F 46% 29.66 in 10.0 mi SW 17.3 mph 24.2 mph N/A   Clear
11:53 PM 46.9 °F - 25.0 °F 42% 29.64 in 10.0 mi SW 20.7 mph 27.6 mph N/A   Clear